Location: Bejsce
(50.2401°N, 20.5970°E)
Time: 16:52:46
(UTC+01:00)

ISS - Visible Passes

Search period start: 16 January 2019 00:00
Search period end: 26 January 2019 00:00
Orbit: 404 x 407 km, 51.6° (Epoch: 17 January)

Date Brightness Start Highest point End Pass type
(mag) Time Alt. Az. Time Alt. Az. Time Alt. Az.
23 Jan -1.7 18:36:47 10° SSW 18:38:06 19° SSW 18:38:06 19° SSW visible
24 Jan -2.1 17:45:28 10° S 17:47:55 19° SE 17:48:29 19° SE visible
24 Jan -0.6 19:20:44 10° WSW 19:21:11 13° WSW 19:21:11 13° WSW visible
25 Jan -1.4 16:54:46 10° SSE 16:56:10 12° SE 16:57:34 10° ESE visible
25 Jan -3.0 18:28:53 10° SW 18:31:29 44° SSW 18:31:29 44° SSW visible
